カタログに戻る

STARLINK-37932

運用中通信SSO
NORAD 69564·PAYLOAD·🇺🇸 United States

打ち上げ Jun 15, 2026 から Vandenberg Space Force Base

Loading…

次のパス (今後24時間)

TLE

最新Source: CelesTrak SupGP

元期: Sep 15, 2026, 02:57 UTC

1 69564C 26135U   26258.12340278 -.00040896  00000+0 -12696-2 0  2589
2 69564  97.2840 285.9341 0001099  93.0100 109.3731 15.33458795    11

AllMySatでSTARLINK-37932をリアルタイム追跡

Download on the App Store